When you browse on this site, cookies collect data to enhance your experience and personalize the content and advertising you see.
Visit our Privacy Policy to learn more. By continuing to use the site, you agree to this use of cookies and data.
  • In Schweiz
  • Länderverzeichnis
  • Für 7 Tage
  • Wassertemperatur
  • Wetterkarte
  • Widgets
  • user-avatar
    Anmelden

    Stündliche Wetter Tonton

    Heute, 18 September, Mittwoch

    Zeit Temperatur Niederschläge Wind Luftdruck Luftfeuchtigkeit
    00:00 +10°C° 0 mm 4 m/S 769 mmHg 91%
    01:00 +10°C° 0 mm 3 m/S 769 mmHg 91%
    02:00 +9°C° 0 mm 3 m/S 769 mmHg 92%
    03:00 +9°C° 0 mm 2 m/S 769 mmHg 92%
    04:00 +8°C° 0 mm 2 m/S 769 mmHg 92%
    05:00 +8°C° 0 mm 2 m/S 769 mmHg 92%
    06:00 +8°C° 0 mm 2 m/S 770 mmHg 90%
    07:00 +10°C° 0 mm 2 m/S 770 mmHg 83%
    08:00 +12°C° 0 mm 2 m/S 770 mmHg 76%
    09:00 +14°C° 0 mm 2 m/S 770 mmHg 69%
    10:00 +15°C° 0 mm 2 m/S 770 mmHg 65%
    11:00 +17°C° 0 mm 2 m/S 770 mmHg 61%
    12:00 +18°C° 0 mm 2 m/S 770 mmHg 57%
    13:00 +18°C° 0 mm 2 m/S 770 mmHg 57%
    14:00 +18°C° 0 mm 2 m/S 770 mmHg 57%
    15:00 +19°C° 0 mm 2 m/S 770 mmHg 57%
    16:00 +17°C° 0 mm 2 m/S 770 mmHg 63%
    17:00 +16°C° 0 mm 2 m/S 769 mmHg 69%
    18:00 +15°C° 0 mm 2 m/S 769 mmHg 75%
    19:00 +14°C° 0 mm 2 m/S 770 mmHg 78%
    20:00 +13°C° 0 mm 1 m/S 770 mmHg 80%
    21:00 +12°C° 0 mm 1 m/S 770 mmHg 83%
    22:00 +12°C° 0 mm 1 m/S 770 mmHg 84%
    23:00 +12°C° 0 mm 1 m/S 770 mmHg 84%

    Morgen, 19 September, Donnerstag

    Zeit Temperatur Niederschläge Wind Luftdruck Luftfeuchtigkeit
    00:00 +12°C° 0 mm 1 m/S 770 mmHg 85%
    01:00 +11°C° 0 mm 1 m/S 770 mmHg 86%
    02:00 +11°C° 0 mm 1 m/S 770 mmHg 86%
    03:00 +11°C° 0 mm 1 m/S 770 mmHg 86%
    04:00 +10°C° 0 mm 1 m/S 770 mmHg 87%
    05:00 +10°C° 0 mm 1 m/S 770 mmHg 87%
    06:00 +10°C° 0 mm 1 m/S 770 mmHg 88%
    07:00 +12°C° 0 mm 1 m/S 770 mmHg 82%
    08:00 +14°C° 0 mm 2 m/S 771 mmHg 76%
    09:00 +16°C° 0 mm 2 m/S 771 mmHg 71%
    10:00 +17°C° 0 mm 2 m/S 771 mmHg 67%
    11:00 +18°C° 0 mm 2 m/S 771 mmHg 64%
    12:00 +19°C° 0 mm 2 m/S 771 mmHg 61%
    13:00 +19°C° 0 mm 2 m/S 770 mmHg 62%
    14:00 +20°C° 0 mm 2 m/S 770 mmHg 63%
    15:00 +20°C° 0 mm 2 m/S 770 mmHg 63%
    16:00 +18°C° 0 mm 2 m/S 770 mmHg 70%
    17:00 +18°C° 0 mm 1 m/S 769 mmHg 77%
    18:00 +15°C° 0 mm 1 m/S 769 mmHg 83%
    19:00 +14°C° 0 mm 1 m/S 769 mmHg 85%
    20:00 +13°C° 0 mm 1 m/S 769 mmHg 87%
    21:00 +13°C° 0 mm 2 m/S 769 mmHg 90%
    22:00 +12°C° 0 mm 2 m/S 769 mmHg 90%
    23:00 +12°C° 0 mm 2 m/S 769 mmHg 91%

    übermorgen, 20 September, Freitag

    Zeit Temperatur Niederschläge Wind Luftdruck Luftfeuchtigkeit
    00:00 +11°C° 0 mm 3 m/S 768 mmHg 92%
    01:00 +10°C° 0 mm 3 m/S 768 mmHg 93%
    02:00 +10°C° 0 mm 3 m/S 768 mmHg 93%
    03:00 +9°C° 0 mm 3 m/S 767 mmHg 94%
    04:00 +9°C° 0 mm 3 m/S 767 mmHg 94%
    05:00 +8°C° 0 mm 4 m/S 766 mmHg 95%
    06:00 +8°C° 0 mm 4 m/S 766 mmHg 95%
    07:00 +10°C° 0 mm 5 m/S 766 mmHg 87%
    08:00 +13°C° 0 mm 6 m/S 766 mmHg 80%
    09:00 +14°C° 0 mm 6 m/S 766 mmHg 72%
    10:00 +16°C° 0 mm 7 m/S 765 mmHg 66%
    11:00 +17°C° 0 mm 7 m/S 764 mmHg 61%
    12:00 +18°C° 0 mm 8 m/S 764 mmHg 55%
    13:00 +18°C° 0 mm 8 m/S 763 mmHg 54%
    14:00 +18°C° 0 mm 8 m/S 762 mmHg 53%
    15:00 +18°C° 0 mm 8 m/S 761 mmHg 52%
    16:00 +16°C° 0 mm 7 m/S 761 mmHg 55%
    17:00 +15°C° 0 mm 7 m/S 760 mmHg 58%
    18:00 +14°C° 0 mm 6 m/S 760 mmHg 62%
    19:00 +14°C° 0 mm 6 m/S 759 mmHg 61%
    20:00 +14°C° 0 mm 7 m/S 759 mmHg 61%
    21:00 +14°C° 0 mm 7 m/S 759 mmHg 60%
    22:00 +14°C° 0 mm 7 m/S 758 mmHg 62%
    23:00 +15°C° 0 mm 7 m/S 758 mmHg 63%

    21 September, Samstag

    Zeit Temperatur Niederschläge Wind Luftdruck Luftfeuchtigkeit
    00:00 +15°C° 0 mm 6 m/S 757 mmHg 65%
    01:00 +15°C° 0 mm 6 m/S 757 mmHg 66%
    02:00 +14°C° 0 mm 6 m/S 756 mmHg 67%
    03:00 +14°C° 0 mm 6 m/S 756 mmHg 69%
    04:00 +14°C° 0 mm 5 m/S 755 mmHg 71%
    05:00 +14°C° 0 mm 5 m/S 755 mmHg 74%
    06:00 +13°C° 0 mm 5 m/S 754 mmHg 77%
    07:00 +15°C° 0 mm 5 m/S 754 mmHg 75%
    08:00 +16°C° 0 mm 6 m/S 754 mmHg 74%
    09:00 +19°C° 0 mm 6 m/S 754 mmHg 73%
    10:00 +18°C° 0 mm 7 m/S 753 mmHg 72%
    11:00 +20°C° 0 mm 7 m/S 753 mmHg 71%
    12:00 +21°C° 0 mm 7 m/S 753 mmHg 71%
    13:00 +22°C° 0 mm 7 m/S 752 mmHg 72%
    14:00 +22°C° 0 mm 7 m/S 751 mmHg 73%
    15:00 +22°C° 0 mm 7 m/S 751 mmHg 74%
    16:00 +21°C° 0.3 mm 7 m/S 751 mmHg 78%
    17:00 +20°C° 0.3 mm 6 m/S 750 mmHg 83%
    18:00 +19°C° 0.3 mm 6 m/S 750 mmHg 87%
    19:00 +19°C° 0.1 mm 6 m/S 750 mmHg 89%
    20:00 +17°C° 0.1 mm 6 m/S 750 mmHg 90%
    21:00 +17°C° 0.1 mm 5 m/S 749 mmHg 91%
    22:00 +17°C° 0.1 mm 5 m/S 749 mmHg 92%
    23:00 +17°C° 0.1 mm 5 m/S 749 mmHg 93%

    22 September, Sonntag

    Zeit Temperatur Niederschläge Wind Luftdruck Luftfeuchtigkeit
    00:00 +17°C° 0.1 mm 5 m/S 749 mmHg 94%
    01:00 +17°C° 0 mm 4 m/S 749 mmHg 93%
    02:00 +15°C° 0 mm 4 m/S 750 mmHg 93%
    03:00 +16°C° 0 mm 3 m/S 750 mmHg 92%
    04:00 +14°C° 0 mm 4 m/S 750 mmHg 93%
    05:00 +14°C° 0 mm 4 m/S 750 mmHg 94%
    06:00 +14°C° 0 mm 5 m/S 750 mmHg 94%
    07:00 +15°C° 0 mm 5 m/S 751 mmHg 89%
    08:00 +15°C° 0 mm 6 m/S 751 mmHg 83%
    09:00 +16°C° 0 mm 7 m/S 751 mmHg 77%
    10:00 +17°C° 0 mm 7 m/S 751 mmHg 74%
    11:00 +17°C° 0 mm 7 m/S 751 mmHg 71%
    12:00 +18°C° 0 mm 7 m/S 752 mmHg 68%
    13:00 +18°C° 0.2 mm 7 m/S 752 mmHg 67%
    14:00 +18°C° 0.2 mm 7 m/S 752 mmHg 67%
    15:00 +18°C° 0.2 mm 7 m/S 752 mmHg 66%
    16:00 +16°C° 0.1 mm 6 m/S 752 mmHg 72%
    17:00 +15°C° 0.1 mm 5 m/S 753 mmHg 78%
    18:00 +14°C° 0.1 mm 5 m/S 753 mmHg 84%
    19:00 +13°C° 0 mm 4 m/S 754 mmHg 87%
    20:00 +12°C° 0 mm 4 m/S 754 mmHg 90%
    21:00 +11°C° 0 mm 3 m/S 755 mmHg 92%
    22:00 +11°C° 0 mm 3 m/S 755 mmHg 92%
    23:00 +10°C° 0 mm 3 m/S 755 mmHg 92%

    23 September, Montag

    Zeit Temperatur Niederschläge Wind Luftdruck Luftfeuchtigkeit
    00:00 +10°C° 0 mm 3 m/S 755 mmHg 92%
    01:00 +10°C° 0 mm 3 m/S 755 mmHg 92%
    02:00 +11°C° 0 mm 3 m/S 755 mmHg 92%
    03:00 +11°C° 0 mm 3 m/S 755 mmHg 91%
    04:00 +12°C° 0 mm 3 m/S 755 mmHg 92%
    05:00 +12°C° 0 mm 4 m/S 754 mmHg 92%
    06:00 +13°C° 0 mm 4 m/S 754 mmHg 92%
    07:00 +14°C° 0.2 mm 5 m/S 754 mmHg 92%
    08:00 +14°C° 0.2 mm 6 m/S 753 mmHg 91%
    09:00 +15°C° 0.2 mm 7 m/S 753 mmHg 91%
    10:00 +15°C° 0.3 mm 7 m/S 753 mmHg 92%
    11:00 +16°C° 0.3 mm 7 m/S 753 mmHg 93%
    12:00 +16°C° 0.3 mm 7 m/S 752 mmHg 95%
    13:00 +17°C° 0.3 mm 6 m/S 752 mmHg 94%
    14:00 +17°C° 0.3 mm 6 m/S 752 mmHg 93%
    15:00 +19°C° 0.3 mm 5 m/S 752 mmHg 93%
    16:00 +19°C° 0.3 mm 5 m/S 752 mmHg 93%
    17:00 +19°C° 0.3 mm 5 m/S 753 mmHg 94%
    18:00 +17°C° 0.3 mm 5 m/S 753 mmHg 94%
    19:00 +17°C° 0 mm 5 m/S 753 mmHg 95%
    20:00 +16°C° 0 mm 5 m/S 754 mmHg 95%
    21:00 +17°C° 0 mm 4 m/S 754 mmHg 96%
    22:00 +17°C° 0 mm 4 m/S 754 mmHg 96%
    23:00 +17°C° 0 mm 4 m/S 754 mmHg 97%
    Mehr zeigen